Weather History for KGRF - July, 2013

Change the Weather History Date:

Thursday, July 11, 2013

  Actual Average Record
Temperature  
Mean Temperature 58 °F -  
Max Temperature 70 °F 74 °F 96 °F (2007)
Min Temperature 47 °F 51 °F 42 °F (2008)
Degree Days  
Heating Degree Days 6    
Growing Degree Days 8 (Base 50)    
Moisture  
Dew Point 47 °F    
Average Humidity 65    
Maximum Humidity 87    
Minimum Humidity 43    
Precipitation  
Precipitation 0.00 in - - ()
Sea Level Pressure  
Sea Level Pressure 30.05 in    
Wind  
Wind Speed 6 mph (SW)    
Max Wind Speed 10 mph    
Max Gust Speed -    
Visibility 10 miles    
Events      
Averages and records for this station are not official NWS values.
T = Trace of Precipitation, MM = Missing Value Source: NWS Daily Summary

Daily Weather History Graph

Daily Weather History Graph

Search for Another Location

Airport or City:

Trip Planner

Search our weather history database for the weather conditions in past years. The results will help you decide how hot, cold, wet, or windy it might be!

Date:

Astronomy

Jul. 11, 2013 Rise Set
Actual Time 5:26 AM PDT 9:04 PM PDT
Civil Twilight 4:48 AM PDT 9:43 PM PDT
Nautical Twilight 3:56 AM PDT 10:34 PM PDT
Astronomical Twilight 2:45 AM PDT 11:44 PM PDT
Moon 9:07 AM PDT (7/11) 10:28 PM PDT (7/11)
Length of Visible Light 16h 54m
Length of Day
15h 37m
Waxing Crescent, 11% of the Moon is Illuminated
Jul 11
Waxing Crescent
Jul 15
First Quarter
Jul 22
Full
Jul 29
Last Quarter
Aug 6
New

Hourly Weather History & Observations

Time (PDT) Temp. Dew Point Humidity Pressure Visibility Wind Dir Wind Speed Gust Speed Precip Events Conditions
12:58 AM 52.3 °F 45.7 °F 78% 30.02 in 10.0 mi SSE 6.9 mph - N/A   Clear
1:58 AM 50.2 °F 45.1 °F 83% 30.02 in 10.0 mi SE 8.1 mph - N/A   Clear
2:58 AM 48.4 °F 44.4 °F 86% 30.03 in 10.0 mi SSE 8.1 mph - N/A   Clear
3:58 AM 47.5 °F 43.9 °F 87% 30.04 in 10.0 mi SSE 6.9 mph - N/A   Clear
4:43 AM 48.2 °F 44.6 °F 87% 30.04 in 10.0 mi SSE 5.8 mph - N/A   Mostly Cloudy
4:58 AM 49.1 °F 45.5 °F 87% 30.06 in 10.0 mi SSE 4.6 mph - N/A   Mostly Cloudy
5:58 AM 52.0 °F 46.6 °F 82% 30.07 in 10.0 mi SE 5.8 mph - N/A   Overcast
6:58 AM 53.4 °F 47.1 °F 79% 30.08 in 10.0 mi South 5.8 mph - N/A   Overcast
7:58 AM 54.3 °F 47.1 °F 77% 30.09 in 10.0 mi South 3.5 mph - N/A   Overcast
8:58 AM 55.2 °F 47.3 °F 75% 30.09 in 10.0 mi SSW 5.8 mph - N/A   Overcast
9:58 AM 56.7 °F 47.5 °F 71% 30.09 in 10.0 mi West 5.8 mph - N/A   Overcast
10:58 AM 57.6 °F 47.3 °F 69% 30.10 in 10.0 mi West 4.6 mph - N/A   Overcast
11:58 AM 60.8 °F 47.5 °F 62% 30.10 in 10.0 mi Variable 1.2 mph - N/A   Overcast
12:23 PM 60.8 °F 48.2 °F 63% 30.09 in 10.0 mi Variable 2.3 mph - N/A   Scattered Clouds
12:58 PM 64.6 °F 48.0 °F 55% 30.09 in 10.0 mi Variable 3.5 mph - N/A   Partly Cloudy
1:58 PM 66.0 °F 45.9 °F 48% 30.08 in 10.0 mi SW 5.8 mph - N/A   Clear
2:58 PM 68.2 °F 45.1 °F 43% 30.07 in 10.0 mi WSW 8.1 mph - N/A   Clear
3:58 PM 69.4 °F 46.2 °F 43% 30.06 in 10.0 mi Variable 6.9 mph - N/A   Clear
4:58 PM 70.2 °F 46.8 °F 43% 30.04 in 10.0 mi West 5.8 mph - N/A   Clear
5:58 PM 70.0 °F 46.6 °F 43% 30.03 in 10.0 mi NW 10.4 mph - N/A   Clear
6:58 PM 69.4 °F 46.9 °F 45% 30.01 in 10.0 mi NW 6.9 mph - N/A   Clear
7:58 PM 67.6 °F 46.4 °F 46% 30.01 in 10.0 mi Variable 4.6 mph - N/A   Clear
8:58 PM 65.1 °F 47.8 °F 54% 30.01 in 10.0 mi North 5.8 mph - N/A   Clear
9:58 PM 59.9 °F 47.8 °F 64% 30.02 in 10.0 mi West 5.8 mph - N/A   Clear
10:58 PM 59.7 °F 47.1 °F 63% 30.02 in 10.0 mi West 1.2 mph - N/A   Clear
11:58 PM 58.5 °F 47.1 °F 66% 30.03 in 10.0 mi West 4.6 mph - N/A   Overcast